• In Portugal
  • List of Countries
  • For 7 days
  • Water Temperature
  • Satellite Maps
  • Weather Map
  • Weather Widgets
  • user-avatar
    Login

    Hourly Weather Juwaja

    Today, 23 May, Wednesday

    Time Temperature Precipitation Wind Pressure Humidity
    00:00 +30°C° 0 mm 2 mps 736 mmHg 28%
    01:00 +30°C° 0 mm 2 mps 736 mmHg 30%
    02:00 +29°C° 0 mm 3 mps 736 mmHg 32%
    03:00 +28°C° 0 mm 2 mps 736 mmHg 36%
    04:00 +27°C° 0 mm 2 mps 736 mmHg 41%
    05:00 +26°C° 0 mm 2 mps 736 mmHg 45%
    06:00 +28°C° 0 mm 2 mps 736 mmHg 42%
    07:00 +29°C° 0 mm 3 mps 736 mmHg 38%
    08:00 +31°C° 0 mm 3 mps 736 mmHg 36%
    09:00 +33°C° 0 mm 4 mps 737 mmHg 34%
    10:00 +33°C° 0 mm 4 mps 737 mmHg 32%
    11:00 +34°C° 0 mm 5 mps 737 mmHg 30%
    12:00 +34°C° 0 mm 5 mps 737 mmHg 31%
    13:00 +34°C° 0 mm 5 mps 737 mmHg 32%
    14:00 +32°C° 0 mm 5 mps 736 mmHg 41%
    15:00 +30°C° 0 mm 4 mps 737 mmHg 44%
    16:00 +30°C° 0 mm 4 mps 737 mmHg 46%
    17:00 +29°C° 0 mm 4 mps 737 mmHg 49%
    18:00 +27°C° 0 mm 3 mps 737 mmHg 58%
    19:00 +26°C° 0 mm 3 mps 737 mmHg 67%
    20:00 +25°C° 0 mm 2 mps 737 mmHg 77%
    21:00 +24°C° 0 mm 2 mps 737 mmHg 79%
    22:00 +24°C° 0 mm 2 mps 737 mmHg 81%
    23:00 +23°C° 0 mm 2 mps 737 mmHg 82%

    Tomorrow, 24 May, Thursday

    Time Temperature Precipitation Wind Pressure Humidity
    00:00 +23°C° 0 mm 2 mps 736 mmHg 81%
    01:00 +23°C° 0 mm 2 mps 736 mmHg 80%
    02:00 +23°C° 0 mm 2 mps 736 mmHg 79%
    03:00 +23°C° 0 mm 2 mps 736 mmHg 79%
    04:00 +21°C° 0 mm 2 mps 736 mmHg 79%
    05:00 +21°C° 0 mm 3 mps 736 mmHg 79%
    06:00 +24°C° 0 mm 3 mps 736 mmHg 72%
    07:00 +26°C° 0 mm 3 mps 736 mmHg 64%
    08:00 +27°C° 0 mm 3 mps 736 mmHg 56%
    09:00 +29°C° 0 mm 3 mps 736 mmHg 52%
    10:00 +30°C° 0 mm 4 mps 736 mmHg 47%
    11:00 +32°C° 0 mm 4 mps 736 mmHg 42%
    12:00 +33°C° 0 mm 4 mps 736 mmHg 42%
    13:00 +33°C° 0 mm 4 mps 735 mmHg 43%
    14:00 +33°C° 0 mm 5 mps 735 mmHg 44%
    15:00 +32°C° 0 mm 4 mps 735 mmHg 45%
    16:00 +30°C° 0 mm 3 mps 734 mmHg 45%
    17:00 +30°C° 0 mm 3 mps 734 mmHg 46%
    18:00 +28°C° 0 mm 3 mps 734 mmHg 53%
    19:00 +27°C° 0 mm 2 mps 734 mmHg 61%
    20:00 +25°C° 0 mm 2 mps 734 mmHg 68%
    21:00 +25°C° 0 mm 2 mps 734 mmHg 70%
    22:00 +24°C° 0 mm 2 mps 734 mmHg 72%
    23:00 +24°C° 0 mm 2 mps 734 mmHg 74%

    Day after tomorrow, 25 May, Friday

    Time Temperature Precipitation Wind Pressure Humidity
    00:00 +24°C° 0 mm 2 mps 734 mmHg 69%
    01:00 +24°C° 0 mm 2 mps 734 mmHg 63%
    02:00 +24°C° 0 mm 2 mps 733 mmHg 57%
    03:00 +24°C° 0 mm 2 mps 733 mmHg 58%
    04:00 +23°C° 0 mm 2 mps 733 mmHg 58%
    05:00 +23°C° 0 mm 2 mps 733 mmHg 58%
    06:00 +25°C° 0 mm 2 mps 733 mmHg 53%
    07:00 +27°C° 0 mm 3 mps 734 mmHg 47%
    08:00 +29°C° 0 mm 3 mps 734 mmHg 42%
    09:00 +30°C° 0 mm 3 mps 734 mmHg 39%
    10:00 +31°C° 0 mm 3 mps 734 mmHg 36%
    11:00 +34°C° 0 mm 4 mps 734 mmHg 33%
    12:00 +34°C° 0 mm 4 mps 734 mmHg 34%
    13:00 +34°C° 0 mm 4 mps 734 mmHg 35%
    14:00 +34°C° 0 mm 5 mps 733 mmHg 35%
    15:00 +33°C° 0 mm 4 mps 733 mmHg 38%
    16:00 +31°C° 0 mm 3 mps 733 mmHg 41%
    17:00 +30°C° 0 mm 3 mps 733 mmHg 43%
    18:00 +29°C° 0 mm 2 mps 733 mmHg 48%
    19:00 +28°C° 0 mm 2 mps 733 mmHg 53%
    20:00 +27°C° 0 mm 2 mps 733 mmHg 57%
    21:00 +26°C° 0 mm 1 mps 733 mmHg 56%
    22:00 +26°C° 0 mm 1 mps 733 mmHg 54%
    23:00 +26°C° 0 mm 1 mps 733 mmHg 52%

    26 May, Saturday

    Time Temperature Precipitation Wind Pressure Humidity
    00:00 +25°C° 0.1 mm 1 mps 733 mmHg 53%
    01:00 +25°C° 0.1 mm 1 mps 733 mmHg 53%
    02:00 +25°C° 0.1 mm 1 mps 732 mmHg 54%
    03:00 +24°C° 0 mm 2 mps 733 mmHg 57%
    04:00 +24°C° 0 mm 2 mps 733 mmHg 60%
    05:00 +24°C° 0 mm 2 mps 733 mmHg 63%
    06:00 +26°C° 0 mm 2 mps 733 mmHg 55%
    07:00 +27°C° 0 mm 2 mps 733 mmHg 47%
    08:00 +29°C° 0 mm 1 mps 734 mmHg 39%
    09:00 +31°C° 0 mm 2 mps 734 mmHg 36%
    10:00 +33°C° 0 mm 3 mps 734 mmHg 34%
    11:00 +34°C° 0 mm 4 mps 734 mmHg 31%
    12:00 +34°C° 0 mm 4 mps 734 mmHg 33%
    13:00 +34°C° 0 mm 4 mps 733 mmHg 34%
    14:00 +34°C° 0 mm 5 mps 733 mmHg 36%
    15:00 +33°C° 0 mm 4 mps 733 mmHg 39%
    16:00 +33°C° 0 mm 4 mps 733 mmHg 42%
    17:00 +32°C° 0 mm 4 mps 733 mmHg 45%
    18:00 +29°C° 0 mm 3 mps 733 mmHg 52%
    19:00 +28°C° 0 mm 3 mps 734 mmHg 59%
    20:00 +27°C° 0 mm 2 mps 734 mmHg 65%
    21:00 +26°C° 0 mm 2 mps 734 mmHg 67%
    22:00 +25°C° 0 mm 2 mps 734 mmHg 69%
    23:00 +25°C° 0 mm 2 mps 734 mmHg 71%

    27 May, Sunday

    Time Temperature Precipitation Wind Pressure Humidity
    00:00 +24°C° 0 mm 2 mps 734 mmHg 70%
    01:00 +24°C° 0 mm 2 mps 734 mmHg 68%
    02:00 +24°C° 0 mm 2 mps 734 mmHg 67%
    03:00 +24°C° 0 mm 2 mps 734 mmHg 65%
    04:00 +24°C° 0 mm 2 mps 734 mmHg 64%
    05:00 +24°C° 0 mm 2 mps 734 mmHg 63%
    06:00 +26°C° 0 mm 2 mps 734 mmHg 53%
    07:00 +28°C° 0 mm 2 mps 735 mmHg 44%
    08:00 +31°C° 0 mm 2 mps 735 mmHg 34%
    09:00 +33°C° 0 mm 3 mps 735 mmHg 33%
    10:00 +34°C° 0 mm 3 mps 735 mmHg 32%
    11:00 +35°C° 0 mm 4 mps 735 mmHg 31%
    12:00 +34°C° 0 mm 4 mps 735 mmHg 36%
    13:00 +33°C° 0 mm 3 mps 735 mmHg 40%
    14:00 +31°C° 0 mm 3 mps 735 mmHg 45%
    15:00 +30°C° 0.1 mm 3 mps 735 mmHg 47%
    16:00 +30°C° 0.1 mm 3 mps 735 mmHg 49%
    17:00 +29°C° 0.1 mm 3 mps 735 mmHg 51%
    18:00 +29°C° 0 mm 3 mps 735 mmHg 50%
    19:00 +29°C° 0 mm 3 mps 735 mmHg 49%
    20:00 +28°C° 0 mm 3 mps 734 mmHg 48%
    21:00 +29°C° 0 mm 3 mps 734 mmHg 45%
    22:00 +29°C° 0 mm 4 mps 734 mmHg 42%
    23:00 +29°C° 0 mm 4 mps 734 mmHg 39%

    28 May, Monday

    Time Temperature Precipitation Wind Pressure Humidity
    00:00 +28°C° 0 mm 4 mps 734 mmHg 40%
    01:00 +28°C° 0 mm 3 mps 733 mmHg 42%
    02:00 +27°C° 0 mm 2 mps 733 mmHg 44%
    03:00 +28°C° 0.1 mm 3 mps 733 mmHg 42%
    04:00 +28°C° 0.1 mm 3 mps 733 mmHg 40%
    05:00 +29°C° 0.1 mm 3 mps 733 mmHg 38%
    06:00 +30°C° 0 mm 3 mps 733 mmHg 36%
    07:00 +31°C° 0 mm 3 mps 733 mmHg 34%
    08:00 +32°C° 0 mm 2 mps 734 mmHg 32%
    09:00 +34°C° 0 mm 2 mps 734 mmHg 31%
    10:00 +34°C° 0 mm 2 mps 733 mmHg 30%
    11:00 +35°C° 0 mm 2 mps 733 mmHg 29%
    12:00 +36°C° 0 mm 2 mps 733 mmHg 28%
    13:00 +36°C° 0 mm 3 mps 733 mmHg 27%
    14:00 +36°C° 0 mm 3 mps 732 mmHg 26%
    15:00 +36°C° 0 mm 3 mps 732 mmHg 28%
    16:00 +36°C° 0 mm 3 mps 732 mmHg 29%
    17:00 +35°C° 0 mm 3 mps 732 mmHg 30%
    18:00 +34°C° 0 mm 2 mps 732 mmHg 34%
    19:00 +31°C° 0 mm 2 mps 732 mmHg 39%
    20:00 +30°C° 0 mm 2 mps 732 mmHg 43%
    21:00 +29°C° 0 mm 2 mps 732 mmHg 43%
    22:00 +29°C° 0 mm 2 mps 732 mmHg 43%
    23:00 +28°C° 0 mm 2 mps 732 mmHg 43%
    Show more